BREEZE-M DEB, 41319

Orbit data source: Space-Track

BREEZE-M DEB, 41319 is space debris in HEO originally from a launch on Thu, 17 May 2012 UTC launched from the Tyuratam Missile And Space Complex (TTMTR). Debris objects in space refer to the collection of defunct objects orbiting the Earth. Examples of debris include non-operational satellites, rocket bodies, and fragments generated from explosions, collisions, or faulty payload assembly.

Loading next visibility...
Identifier
41319, 2012-026F
Orbit
HEO
Last TLE update
21 hours ago
Origin
Manufacturer
Khrunichev
Mission
Spacecraft
Bus & Motor
Unknown
Mass
Unknown
Launch date (UTC)
2012-05-17 (13 years ago)
Launch vehicle
Unknown
Launch site
Tyuratam Missile And Space Complex (TTMTR)
Object type
Payload
Rocket body
Debris
Shape & HBR
Unknown
Radar Cross Section
RCS unknown

Expand to show TLE details & history

TLE from 21 hours ago
0 BREEZE-M DEB
1 41319U 12026F   25183.69778034 -.00000068  00000-0  00000-0 0  9997
2 41319   9.9587 169.2150 4095894 346.2182   5.1850  1.76695716 61449
Epoch: 2025-07-02T16:44Z
TLE epoch observation values (Epoch: 2025-07-02T16:44:48.221Z)
Latitude
-0°
Longitude
-2.98459°
Altitude
10,839.058 km
Speed
5.702 km/s
True Right ascension
11h 16m 45s
True Declination
0° 00' 00"
Sunlit
Object was in daylight at epoch
Visualization orbit readout
Latitude
0.58174°
Longitude
173.62728°
Altitude
33,896.281 km
Speed
2.45 km/s
Apparent Right ascension
22h 44m 31s
Apparent Declination
-5° 43' 47"
Sunlit
Object is in daylight
Visualization observer readout
Local Sidereal Time
01:32:40
Azimuth
230.422° WSW
Elevation
30.181°
Doppler factor
1
Orbital elements
Apogee altitude
34,363.599 km
Perigee altitude
10,686.657 km
Semi-major axis
28,903.265 km
Eccentricity
0.40959
Inclination
9.9587°
RAAN
169.215°
Arg. of periapsis
346.2182°
True anomaly
Unknown
Mean anomaly
5.185°
Eccentric anomaly
Unknown
Mean motion
0.4417 °/min
Orbital period
815.04 mins
BSTAR
0
Loading maneuver chart data...
Loading SW <> Apogee altitude chart data...
Loading historical data...
Loading historical data...
Loading historical data...
Loading historical data...
Loading historical data...
Loading historical data...
Loading historical data...

BREEZE-M DEB Visibility forecast

Observer location: undefined°, undefined°

Span
Click to sort rows by Start time (UTC) header in descending order
Start Az.
Max El. time (UTC)
Max El. Az.
Max El.
End time (UTC)
End Az.
358 mins2025-07-03 13:45:47.822Z230.408° WSW2025-07-03 13:45:47.822Z230.408° WSW26.682°2025-07-03 19:43:47.822Z125.194° SE
|